Location: Saint-Usage
(47.1052°N, 5.2587°E)
Time: 14:01:09
(UTC+02:00)

ISS - Pass Details

Date: 22 September 2021
Orbit: 417 x 423 km, 51.6° (Epoch: 17 October)

Event Time Altitude Azimuth Distance (km) Brightness Sun altitude
Rises 22:25:45 0° 286° (WNW) 2,366 1.1 -28.0°
Reaches altitude 10° 22:27:57 10° 295° (WNW) 1,502 0.0 -28.3°
Enters shadow 22:29:11 19° 306° (NW) 1,064 -1.0 -28.5°
